Terug naar catalogus

FENGYUN 1C DEB

ActiefSSO
NORAD 31002·DEBRIS·🇨🇳 China

Gelanceerd May 10, 1999 vanaf Taiyuan Satellite Launch Center

Loading…

Volgende Passages (komende 24 uur)

TLE

VersSource: Space-Track

Epoch: Sep 13, 2026, 12:53 UTC

1 31002U 99025BCU 26256.53699269  .00000179  00000-0  14677-3 0  9996
2 31002  98.8808 265.3027 0098061 306.2282 206.4372 13.99437025994482

Volg FENGYUN 1C DEB in realtime met AllMySat

Download on the App Store